{"data":{"norad_id":47762,"intl_designator":"2021-017AS","name":"STARLINK-2180","alt_names":[],"object_type":"PAYLOAD","status":"ACTIVE","operator":null,"country":"US","launch_date":"2021-03-04","launch_site_code":"AFETR","launch_vehicle":null,"mission":null,"orbit_class":"UNKNOWN","rcs_meters":null,"size_class":null,"mass_kg":null,"dimensions":null,"purposes":["comms"],"wikipedia_slug":null,"has_3d_model":false,"image_url":null,"decayed_at":null,"tle_current":{"epoch":"2026-05-25T04:13:32.034144Z","epoch_age_seconds":66603,"freshness":"FRESH","line1":"1 47762U 21017AS  26145.17606521  .00083565  00000+0  69991-3 0  9996","line2":"2 47762  53.1578 207.9771 0005891 346.1726  13.9129 15.69264610289589","mean_motion":15.6926461,"eccentricity":0.0005891,"inclination_deg":53.1578,"raan_deg":207.9771,"arg_perigee_deg":346.1726,"mean_anomaly_deg":13.9129,"bstar":0.00069991,"rev_number":28958,"period_min":91.762727001152,"perigee_km":357.03156101194,"apogee_km":364.9716140958,"semimajor_km":6739.1385875539,"source":"CELESTRAK","updated_at":"2026-05-25T13:38:16.569286Z"}}}